Погода в Старой Слободе

Россия / Санкт-Петербург и Ленинградская область     60°46′34″N   33°19′03″E
темп.,
°C
ветер,
м/с
пор.,
м/с
влажн.,
%
обл.,
%
осадки,
мм/ч
давл.,
гПа
погр.,
м
31 июля, сб
сб3100:00+14ююв26817 0.0 998108
03:00+13ю27935 0.6 997134
06:00+13ююв31195100 0.9 996394
09:00+14ю4997100 2.4 995641
12:00+15ююз389357 1.3 995635
15:00+16юз269413 2.9 996511
18:00+19з51066100 0.1 9981076
21:00+16зюз38875 0.3 999280
1 августа, вс
вс100:00+15юз39870 0.0 1001262
03:00+13ююз269613 0.0 1002122
06:00+15ю278219 0.0 1002201
09:00+19ююз3569100 0.0 1003596
12:00+23юз4755100 0.1 10021382
15:00+17ююз2794100 6.4 1001257
18:00+19юз4108636 4.1 1001551
21:00+16зюз39935 7.0 1001328
2 августа, пн
пн200:00+15юз513930 0.4 1002670
03:00+14юз411943 0.4 1003517
06:00+14ююз389732 0.0 1004310
09:00+18юз4765100 0.0 1004954
12:00+21юз464678 0.0 10041270
15:00+23зюз3550100 0.0 10031452
18:00+21ююв2467100 0.3 1002378
21:00+15ю1199100 3.6 100153
3 августа, вт
вт300:00+15ссз12100100 6.3 99994
03:00+15сз2599100 12.4 998299
06:00+15зсз2598100 1.9 999196
09:00+17з24885 2.4 1000483
12:00+20з466298 0.8 10011002
15:00+19з5765100 0.8 1003847
18:00+17з5874100 0.0 1004706
21:00+14з3890100 0.0 1006314
4 августа, ср
ср400:00+15ссз3788100 0.1 1007451
03:00+13сз2593100 0.2 1010261
06:00+12ссз37904 0.0 1012341
09:00+16ссв35520 0.0 1014631
12:00+20с25365 0.0 10152247
15:00+19сз444496 0.0 10161070
18:00+20зсз33415 0.0 10171110
21:00+13ссз12685 0.0 101810